Weather History for Hayward, WI

Change the Weather History Date:

Friday, May 23, 2014

  Actual Average Record
Temperature  
Mean Temperature 56 °F -  
Max Temperature 75 °F 65 °F 84 °F (2006)
Min Temperature 37 °F 41 °F 30 °F (2003)
Degree Days  
Heating Degree Days 9    
Growing Degree Days 6 (Base 50)    
Moisture  
Dew Point 39 °F    
Average Humidity 56    
Maximum Humidity 97    
Minimum Humidity 22    
Precipitation  
Precipitation 0.00 in - - ()
Sea Level Pressure  
Sea Level Pressure 30.22 in    
Wind  
Wind Speed 2 mph (NW)    
Max Wind Speed 7 mph    
Max Gust Speed -    
Visibility 10 miles    
Events      
Averages and records for this station are not official NWS values.
T = Trace of Precipitation, MM = Missing Value Source: NWS Daily Summary

Daily Weather History Graph

Daily Weather History Graph

Search for Another Location

Airport:

Trip Planner

Search our weather history database for the weather conditions in past years. The results will help you decide how hot, cold, wet, or windy it might be!

Date:

Astronomy

May. 23, 2014 Rise Set
Actual Time 5:25 AM CDT 8:40 PM CDT
Civil Twilight 4:48 AM CDT 9:16 PM CDT
Nautical Twilight 4:01 AM CDT 10:04 PM CDT
Astronomical Twilight 3:03 AM CDT 11:03 PM CDT
Moon 2:38 AM CDT 3:17 PM CDT
Length of Visible Light 16h 27m
Length of Day
15h 15m
Waning Crescent, 27% of the Moon is Illuminated
May 23
Waning Crescent
May 28
New
Jun 5
First Quarter
Jun 12
Full
Jun 19
Last Quarter

Hourly Weather History & Observations

Time (CDT) Temp. Windchill Dew Point Humidity Pressure Visibility Wind Dir Wind Speed Gust Speed Precip Events Conditions
12:53 AM 43.0 °F 41.3 °F 41.0 °F 93% 30.23 in 10.0 mi North 3.5 mph - N/A   Clear
1:53 AM 42.1 °F - 39.9 °F 92% 30.24 in 10.0 mi Calm Calm - N/A   Clear
2:53 AM 41.0 °F - 37.9 °F 89% 30.25 in 10.0 mi Calm Calm - N/A   Clear
3:53 AM 39.0 °F 35.7 °F 37.9 °F 96% 30.26 in 10.0 mi North 4.6 mph - N/A   Clear
4:53 AM 37.9 °F - 37.0 °F 97% 30.26 in 10.0 mi Calm Calm - N/A   Clear
5:53 AM 37.0 °F - 36.0 °F 96% 30.27 in 10.0 mi Calm Calm - N/A   Clear
6:53 AM 42.1 °F - 39.9 °F 92% 30.27 in 10.0 mi Calm Calm - N/A   Clear
7:53 AM 51.1 °F - 44.1 °F 77% 30.27 in 10.0 mi Calm Calm - N/A   Clear
8:53 AM 61.0 °F - 41.0 °F 48% 30.27 in 10.0 mi Variable 3.5 mph - N/A   Clear
9:53 AM 64.0 °F - 41.0 °F 43% 30.26 in 10.0 mi Variable 3.5 mph - N/A   Clear
10:53 AM 64.9 °F - 39.9 °F 40% 30.25 in 10.0 mi North 5.8 mph - N/A   Clear
11:53 AM 68.0 °F - 39.9 °F 36% 30.25 in 10.0 mi SW 5.8 mph - N/A   Clear
12:53 PM 69.1 °F - 39.0 °F 33% 30.25 in 10.0 mi SSE 5.8 mph - N/A   Clear
1:53 PM 71.1 °F - 37.9 °F 30% 30.22 in 10.0 mi Variable 3.5 mph - N/A   Clear
2:53 PM 73.0 °F - 36.0 °F 26% 30.21 in 10.0 mi Variable 3.5 mph - N/A   Clear
3:53 PM 73.0 °F - 36.0 °F 26% 30.19 in 10.0 mi SSW 6.9 mph - N/A   Clear
4:53 PM 73.9 °F - 34.0 °F 23% 30.19 in 10.0 mi Calm Calm - N/A   Clear
5:53 PM 75.0 °F - 35.1 °F 23% 30.17 in 10.0 mi South 4.6 mph - N/A   Clear
6:53 PM 75.0 °F - 33.1 °F 22% 30.16 in 10.0 mi Calm Calm - N/A   Clear
7:53 PM 73.0 °F - 35.1 °F 25% 30.15 in 10.0 mi Calm Calm - N/A   Clear
8:53 PM 62.1 °F - 44.1 °F 52% 30.14 in 8.0 mi Calm Calm - N/A   Clear
9:53 PM 60.1 °F - 44.1 °F 55% 30.17 in 10.0 mi North 3.5 mph - N/A   Clear
10:53 PM 54.0 °F - 45.0 °F 72% 30.17 in 10.0 mi Calm Calm - N/A   Clear